Regional Weather Roundup
Issued by NWS

Home | Current Version | Previous Version | Text Only | Print | Product List | Glossary Off
Versions: 1 2 3 4 5 6 7 8 9 10 11 12 13 14 15 16 17 18 19 20 21 22 23 24 25 26 27 28 29 30 31 32 33 34 35 36 37 38 39 40 41 42 43 44 45 46 47 48 49 50

000
ASUS43 KMPX 230810
RWRMN
WEATHER ROUNDUP FOR MINNESOTA
NATIONAL WEATHER SERVICE TWIN CITIES/CHANHASSEN MN
200 AM CST SUN NOV 23 2014


NOTE: "FAIR" INDICATES FEW OR NO CLOUDS BELOW 12,000 FEET WITH NO
SIGNIFICANT WEATHER AND/OR OBSTRUCTIONS TO VISIBILITY. N/A MEANS
CURRENT SKY AND/OR WEATHER CONDITIONS ARE NOT AVAILABLE.

MNZ060>063-068>070-230900-
   Twin Cities Metro

CITY           SKY/WX    TMP DP  RH WIND       PRES   REMARKS
TWIN CITIES    CLOUDY    43  42  97 SE10      29.46F FOG
ST PAUL        CLOUDY    42  42 100 SE8       29.47F FOG
CRYSTAL        CLOUDY    45  42  89 S5        29.44F FOG
BLAINE         CLOUDY    43  43 100 SE7       29.45
LAKEVILLE      CLOUDY    48  46  93 S9        29.46F
EDEN PRAIRIE   CLOUDY    51  48  89 S12       29.44F
SOUTH ST PAUL  CLOUDY    45  44  97 S5        29.47F FOG
LAKE ELMO      FOG       43  43 100 S9        29.48F VSB 1
$$
MNZ001>005-007-008-013>017-022>024-027-028-230900-
   Northwest Minnesota

CITY           SKY/WX    TMP DP  RH WIND       PRES   REMARKS
BEMIDJI        LGT SNOW  32  32  99 SE8       29.37F WCI  25
HALLOCK        CLOUDY    34  32  93 S10       29.33F FOG     WCI  26
ROSEAU         CLOUDY    36  30  80 S7        29.37F
WARROAD        CLOUDY    34  30  86 SE10      29.37F WCI  26
THIEF RVR FALL CLOUDY    34  32  93 S8        29.37S WCI  27
CROOKSTON      CLOUDY    34  32  93 S10       29.38R FOG     WCI  26
FOSSTON        CLOUDY    32  30  93 S6        29.38R FOG     WCI  26
DETROIT LAKES  CLOUDY    34  34 100 S5        29.39R FOG     WCI  30
MOORHEAD       CLOUDY    36  36 100 S6        29.39R FOG
PARK RAPIDS    FOG       33  33 100 SE7       29.37F VSB 1/2 WCI  27
MAHNOMEN       CLOUDY    33  32  96 S8        29.38R FOG     WCI  26
$$
MNZ006-009>011-018-025>026-230900-
   North Central Minnesota

CITY           SKY/WX    TMP DP  RH WIND       PRES   REMARKS
BAUDETTE       CLOUDY    34  29  82 S7        29.40S WCI  28
FLAG ISLAND    CLOUDY    34  30  86 SE14      29.37S WCI  24
INTL FALLS     CLOUDY    34  30  85 S6        29.42F WCI  29
WASKISH        CLOUDY    34  30  86 CALM      29.40S FOG
BIG FORK       CLOUDY    34  30  86 S7        29.42S FOG     WCI  28
LONGVILLE      FOG       34  32  93 SE3       29.40F VSB 1/2
GRAND RAPIDS   CLOUDY    34  30  86 SE5       29.42F WCI  30
CRANE LAKE     CLOUDY    34  30  86 CALM      29.46F FOG
ORR            CLOUDY    32  28  86 SE7       29.41F FOG     WCI  26
COOK           CLOUDY    32  32 100 SE7       29.43F FOG     WCI  26
WALKER         FOG       32  32  99 SE3       29.38F VSB 1/2
$$
MNZ012-019>021-037-230900-
   Northeast Minnesota

CITY           SKY/WX    TMP DP  RH WIND       PRES   REMARKS
DULUTH         DRZL/FOG  34  32  92 E13       29.46F VSB 1/4 WCI  25
ELY            CLOUDY    34  30  86 SE10G16   29.46F FOG     WCI  26
HIBBING        CLOUDY    33  31  92 SE6       29.43F FOG     WCI  28
EVELETH        CLOUDY    32  32 100 SE6       29.44F FOG     WCI  26
DULUTH HARBOR  CLOUDY    37  36  93 NE14      29.50F FOG
TWO HARBORS    DRZL/FOG  37  32  81 E6        29.48F VSB 3/4
SILVER BAY     CLOUDY    36  34  93 E3        29.50F FOG
GRAND MARAIS     N/A     37  33  85 E9        29.58F
G MARAIS ARPRT CLOUDY    30  28  93 SE9G16    29.54F VSB<1/4 WCI  22
$$
MNZ029>031-032-039>041-046>048-054>057-064-230900-
   West Central Minnesota

CITY           SKY/WX    TMP DP  RH WIND       PRES   REMARKS
FERGUS FALLS   MOCLDY    34  32  93 S7        29.41R FOG     WCI  28
WHEATON        CLOUDY    32  30  93 S10       29.42R WCI  24
MORRIS         CLOUDY    36  34  93 S7        29.39S FOG
ALEXANDRIA     CLOUDY    35  34  96 S9        29.39F FOG     WCI  28
ELBOW LAKE       N/A     33  32  97 S13       29.39R FOG     WCI  24
WADENA         FOG       32  32 100 SE5       29.38S VSB 1/4 WCI  27
GLENWOOD       CLOUDY    36  36 100 S14       29.40F FOG
APPLETON       CLOUDY    39  34  81 W6        29.40F
BENSON         CLOUDY    36  34  93 SW5       29.40F
ORTONVILLE     CLOUDY    37  30  75 SW5       29.40F
MADISON        CLOUDY    43  36  75 W10       29.41S
WILLMAR        FAIR      37  36  93 W6        29.43S FOG
$$
MNZ033>034-036-042>043-049>051-058-059-230900-
   Central Minnesota

CITY           SKY/WX    TMP DP  RH WIND       PRES   REMARKS
ST CLOUD       FOG       39  38  96 S7        29.42F VSB 1/4
SAUK CENTRE    CLOUDY    35  35 100 S8        29.40S FOG     WCI  28
PAYNESVILLE    CLOUDY    35  35 100 S7        29.42S FOG     WCI  29
AITKIN         HAZE      37  34  87 SE5       29.40F VSB 1/4
PINE RIVER     FOG       34  34 100 SE3       29.45S VSB 1/4
BRAINERD       FOG       34  34 100 S8        29.41F VSB 1/4 WCI  27
STAPLES        FOG       34  34 100 CALM      29.39F VSB 1/4
LONG PRAIRIE   CLOUDY    34  34 100 S7        29.40S FOG     WCI  28
LITTLE FALLS   FOG       34  34 100 S3        29.41F VSB 1/4
LITCHFIELD     CLOUDY    41  41 100 SW5       29.41F FOG
BUFFALO        CLOUDY    43  42  95 S6        29.43F FOG
MAPLE LAKE     CLOUDY    42  41  98 S5        29.43F FOG
$$
MNZ037-044-045-052-053-230900-
   East Central Minnesota

CITY           SKY/WX    TMP DP  RH WIND       PRES   REMARKS
PRINCETON      FOG       41  39  93 S7        29.43F VSB 1
MORA           FOG       36  36 100 S5        29.45S VSB 1/2
CAMBRIDGE      DRIZZLE   43  36  75 SE8       29.42F
RUSH CITY      CLOUDY    39  38  97 S6        29.46S FOG
MOOSE LAKE     FOG       37  36  93 CALM      29.42F VSB 1
HINCKLEY       FOG       37  37 100 S6        29.45S VSB 1/4
CLOQUET        SNOW      34  34 100 E5        29.44F VSB 1/4 WCI  30
MCGREGOR       CLOUDY    36  34  93 SE6       29.43S VSB 3/4
$$
MNZ071>073-080-081-089-090-097-098-230900-
   Southwest Minnesota

CITY           SKY/WX    TMP DP  RH WIND       PRES   REMARKS
MONTEVIDEO     CLOUDY    37  37 100 SW3       29.43S
GRANITE FALLS  CLOUDY    40  36  84 SW7       29.43R
CANBY          CLOUDY    42  34  71 W12G18    29.42R
MARSHALL       CLOUDY    45  36  70 SW17      29.40S
REDWOOD FALLS  CLOUDY    45  42  89 SW12      29.41F
OLIVIA         CLOUDY    39  36  87 SW10      29.41F FOG
PIPESTONE      CLOUDY    39  37  93 W5        29.41F FOG
WINDOM         CLOUDY    48  46  93 S6        29.44F
WORTHINGTON    CLOUDY    48  46  93 SW14      29.45F
JACKSON        CLOUDY    50  46  87 S10       29.47S
TRACY          CLOUDY    45  42  91 SW17      29.41F
SLAYTON        CLOUDY    43  43 100 SW16      29.44S FOG
$$
MNZ065>067-074>077-082>085-091>093-230900-
   South Central Minnesota

CITY           SKY/WX    TMP DP  RH WIND       PRES   REMARKS
MANKATO        CLOUDY    52  48  87 S12G18    29.47S
NEW ULM        CLOUDY    48  48 100 S10       29.44S
ST JAMES       CLOUDY    52  48  87 S12       29.46F FOG
FAIRMONT       CLOUDY    52  46  82 S15       29.48S
GLENCOE        CLOUDY    47  46  96 SW3       29.43S
FARIBAULT      CLOUDY    52  48  87 S9        29.49F
OWATONNA       CLOUDY    52  48  87 S16       29.49F
WASECA         CLOUDY    50  46  87 S17G24    29.49F
ALBERT LEA     CLOUDY    52  52 100 S14G23    29.51F
$$
MNZ078>079-086>088-094>096-230900-
   Southeast Minnesota

CITY           SKY/WX    TMP DP  RH WIND       PRES   REMARKS
ROCHESTER      CLOUDY    49  48  97 S21       29.54F FOG
RED WING         N/A     50  48  93 SW10G17   29.50F
STANTON        CLOUDY    49  47  91 S9        29.48F FOG
DODGE CENTER   CLOUDY    50  48  93 S17       29.51F FOG
WINONA         CLOUDY    54  50  87 SW8       29.56F
AUSTIN         CLOUDY    48  48 100 S15       29.53F FOG
PRESTON        CLOUDY    48  47  97 S17G23    29.57S FOG
$$
ABBREVIATIONS USED IN REMARKS
   TC - TEMPERATURES IN CELSIUS
  WCI - WIND CHILL INDEX
   HX - HEAT INDEX
  VSB - VISIBILITY
$$


USA.gov is the U.S. government's official web portal to all federal, state and local government web resources and services.